QPF
0.05 0.05 0.06 0.06 0.04 0.05 0.07 0.04 0.03 0.03 0.05 0.05 0.06 0.06 0.07 0.05 0.06 0.10 0.15 0.14 0.12 0.15 0.14 0.14 0.10 0.06 0.04 0.04 0.04 0.04 0.04 0.05 0.06 0.06 0.04 0.04 0.05 0.05 0.05 0.04 0.04 0.04 0.06
0.05 0.07 0.08 0.06 0.04 0.03 0.03 0.02 0.02 0.03 0.05 0.07 0.07 0.07 0.05 0.04 0.05 0.07 0.07 0.08 0.15 0.18 0.15 0.12 0.09 0.06 0.06 0.04 0.05 0.05 0.04 0.05 0.06 0.06 0.05 0.05 0.06 0.07 0.07 0.06 0.04 0.04 0.05
0.04 0.06 0.08 0.07 0.04 0.04 0.04 0.04 0.04 0.05 0.05 0.06 0.08 0.06 0.05 0.04 0.06 0.08 0.09 0.09 0.15 0.18 0.13 0.09 0.09 0.09 0.08 0.08 0.07 0.06 0.05 0.04 0.04 0.05 0.06 0.07 0.08 0.09 0.10 0.09 0.08 0.06 0.06
0.03 0.05 0.05 0.05 0.05 0.06 0.05 0.05 0.06 0.06 0.05 0.05 0.07 0.09 0.11 0.13 0.14 0.12 0.09 0.09 0.11 0.09 0.07 0.08 0.09 0.10 0.12 0.11 0.10 0.09 0.07 0.06 0.07 0.08 0.08 0.08 0.08 0.08 0.08 0.10 0.10 0.09 0.07
0.03 0.02 0.03 0.04 0.03 0.03 0.04 0.04 0.05 0.04 0.04 0.05 0.07 0.12 0.15 0.13 0.09 0.06 0.06 0.08 0.09 0.09 0.09 0.09 0.11 0.10 0.10 0.13 0.15 0.14 0.12 0.11 0.11 0.10 0.09 0.07 0.06 0.06 0.06 0.07 0.09 0.10 0.12
0.04 0.03 0.03 0.04 0.03 0.02 0.03 0.03 0.04 0.04 0.03 0.03 0.04 0.06 0.08 0.07 0.05 0.05 0.05 0.09 0.09 0.09 0.12 0.12 0.11 0.12 0.13 0.13 0.12 0.13 0.13 0.10 0.08 0.07 0.07 0.07 0.07 0.08 0.08 0.08 0.09 0.10 0.11
0.03 0.04 0.04 0.05 0.04 0.03 0.02 0.02 0.02 0.04 0.04 0.03 0.03 0.04 0.07 0.07 0.06 0.07 0.08 0.10 0.09 0.11 0.16 0.17 0.20 0.19 0.15 0.12 0.11 0.09 0.09 0.11 0.11 0.09 0.08 0.07 0.07 0.07 0.07 0.08 0.08 0.07 0.06
0.05 0.04 0.05 0.05 0.04 0.03 0.03 0.02 0.02 0.03 0.04 0.03 0.03 0.03 0.04 0.05 0.05 0.05 0.07 0.13 0.11 0.10 0.12 0.15 0.19 0.21 0.18 0.11 0.08 0.10 0.09 0.11 0.12 0.12 0.11 0.11 0.10 0.09 0.09 0.09 0.07 0.07 0.07
0.03 0.03 0.03 0.04 0.04 0.03 0.01 0.02 0.02 0.02 0.03 0.03 0.03 0.03 0.03 0.03 0.03 0.04 0.04 0.05 0.07 0.12 0.13 0.13 0.15 0.15 0.14 0.11 0.08 0.09 0.10 0.11 0.12 0.13 0.14 0.17 0.20 0.16 0.13 0.10 0.08 0.08 0.10
0.03 0.02 0.02 0.03 0.04 0.03 0.02 0.02 0.02 0.01 0.02 0.04 0.04 0.03 0.03 0.04 0.04 0.03 0.04 0.04 0.05 0.06 0.07 0.12 0.15 0.13 0.11 0.09 0.08 0.08 0.10 0.12 0.12 0.14 0.17 0.19 0.19 0.18 0.15 0.12 0.09 0.09 0.09
0.02 0.02 0.02 0.02 0.02 0.02 0.01 0.02 0.03 0.02 0.01 0.02 0.03 0.02 0.02 0.03 0.03 0.02 0.02 0.03 0.03 0.03 0.05 0.10 0.11 0.10 0.07 0.05 0.05 0.09 0.11 0.09 0.09 0.12 0.14 0.15 0.12 0.11 0.12 0.13 0.12 0.10 0.11
0.02 0.03 0.02 0.02 0.02 0.02 0.01 0.02 0.03 0.03 0.02 0.01 0.02 0.02 0.02 0.02 0.03 0.02 0.02 0.02 0.02 0.03 0.05 0.06 0.07 0.08 0.06 0.06 0.06 0.07 0.07 0.07 0.07 0.06 0.07 0.06 0.07 0.08 0.09 0.11 0.12 0.15 0.16
0.01 0.02 0.03 0.02 0.02 0.02 0.01 0.01 0.02 0.03 0.03 0.02 0.01 0.01 0.02 0.02 0.03 0.04 0.03 0.03 0.03 0.03 0.03 0.05 0.05 0.05 0.04 0.04 0.05 0.06 0.05 0.05 0.05 0.04 0.03 0.03 0.04 0.04 0.05 0.08 0.11 0.13 0.15
0.02 0.02 0.02 0.02 0.02 0.02 0.01 0.01 0.01 0.02 0.03 0.04 0.03 0.02 0.02 0.03 0.03 0.03 0.03 0.04 0.04 0.03 0.02 0.03 0.04 0.03 0.03 0.03 0.04 0.04 0.04 0.05 0.04 0.03 0.02 0.02 0.02 0.02 0.02 0.03 0.05 0.07 0.10
0.02 0.02 0.02 0.02 0.02 0.02 0.02 0.01 0.01 0.02 0.03 0.05 0.07 0.07 0.05 0.04 0.04 0.04 0.05 0.06 0.05 0.04 0.03 0.02 0.03 0.03 0.02 0.03 0.03 0.02 0.03 0.03 0.03 0.03 0.02 0.02 0.02 0.02 0.03 0.03 0.03 0.03 0.03
0.01 0.01 0.01 0.01 0.02 0.02 0.02 0.01 0.01 0.02 0.02 0.03 0.04 0.06 0.08 0.08 0.06 0.05 0.05 0.07 0.07 0.05 0.02 0.01 0.02 0.03 0.03 0.03 0.02 0.01 0.03 0.03 0.03 0.03 0.03 0.03 0.03 0.03 0.03 0.03 0.03 0.02 0.02
0.01 0.01 0.01 0.02 0.02 0.02 0.01 0.01 0.01 0.01 0.01 0.02 0.02 0.02 0.03 0.04 0.06 0.05 0.04 0.04 0.06 0.07 0.05 0.03 0.03 0.03 0.04 0.04 0.03 0.02 0.02 0.04 0.04 0.04 0.04 0.04 0.04 0.04 0.03 0.02 0.02 0.03 0.03
0.02 0.02 0.01 0.01 0.01 0.01 0.01 0.01 0.01 0.01 0.01 0.01 0.01 0.01 0.01 0.02 0.02 0.03 0.04 0.05 0.05 0.07 0.07 0.05 0.04 0.04 0.05 0.04 0.04 0.03 0.03 0.05 0.05 0.04 0.04 0.04 0.04 0.04 0.03 0.03 0.04 0.03 0.02
0.05 0.05 0.03 0.02 0.02 0.02 0.03 0.02 0.02 0.01 0.01 0.02 0.02 0.01 0.01 0.02 0.02 0.03 0.05 0.06 0.05 0.05 0.06 0.05 0.04 0.05 0.04 0.05 0.05 0.04 0.05 0.07 0.06 0.06 0.05 0.04 0.03 0.03 0.03 0.04 0.04 0.03 0.02
0.09 0.08 0.05 0.03 0.03 0.03 0.03 0.03 0.03 0.01 0.01 0.02 0.02 0.02 0.03 0.03 0.03 0.04 0.05 0.05 0.06 0.05 0.05 0.05 0.05 0.06 0.05 0.04 0.05 0.06 0.07 0.08 0.08 0.06 0.05 0.05 0.04 0.03 0.03 0.03 0.03 0.02 0.02
0.05 0.06 0.04 0.04 0.04 0.04 0.04 0.04 0.03 0.03 0.02 0.02 0.01 0.02 0.02 0.03 0.04 0.05 0.05 0.06 0.05 0.05 0.05 0.04 0.05 0.06 0.06 0.06 0.06 0.07 0.08 0.09 0.09 0.07 0.06 0.05 0.04 0.03 0.02 0.03 0.02 0.02 0.02
0.02 0.03 0.05 0.08 0.09 0.08 0.06 0.04 0.03 0.02 0.02 0.01 0.01 0.01 0.01 0.01 0.03 0.04 0.05 0.05 0.05 0.05 0.05 0.04 0.04 0.05 0.05 0.05 0.07 0.08 0.09 0.09 0.08 0.06 0.05 0.04 0.03 0.02 0.02 0.02 0.02 0.03 0.03
0.03 0.03 0.03 0.04 0.06 0.06 0.05 0.05 0.04 0.03 0.02 0.01 0.01 0.01 0.01 0.01 0.02 0.02 0.03 0.06 0.07 0.06 0.05 0.05 0.05 0.06 0.06 0.05 0.05 0.04 0.04 0.04 0.04 0.05 0.05 0.03 0.03 0.03 0.03 0.03 0.03 0.03 0.03
0.02 0.02 0.03 0.03 0.03 0.02 0.02 0.02 0.03 0.03 0.02 0.02 0.02 0.02 0.02 0.01 0.02 0.02 0.02 0.02 0.03 0.03 0.04 0.04 0.04 0.05 0.05 0.04 0.02 0.02 0.02 0.03 0.03 0.03 0.03 0.03 0.03 0.04 0.03 0.03 0.03 0.03 0.03
0.02 0.02 0.02 0.02 0.01 0.02 0.02 0.02 0.02 0.02 0.01 0.01 0.01 0.01 0.01 0.01 0.02 0.02 0.02 0.01 0.01 0.02 0.02 0.02 0.03 0.04 0.04 0.04 0.03 0.02 0.02 0.03 0.03 0.03 0.02 0.03 0.04 0.04 0.04 0.05 0.05 0.05 0.04
0.02 0.02 0.02 0.01 0.01 0.02 0.02 0.02 0.01 0.01 0.01 0.01 0.01 0.01 0.01 0.01 0.01 0.02 0.01 0.01 0.01 0.01 0.01 0.02 0.03 0.04 0.04 0.03 0.03 0.02 0.02 0.02 0.03 0.02 0.02 0.03 0.04 0.03 0.03 0.03 0.03 0.03 0.04
MSLP
1013.36 1013.78 1014.14 1014.48 1014.84 1015.24 1015.70 1016.20 1016.70 1017.18 1017.58 1017.88 1018.07 1018.19 1018.26 1018.32 1018.41 1018.56 1018.75 1018.97 1019.20 1019.39 1019.53 1019.60 1019.62 1019.61 1019.58 1019.56 1019.56 1019.59 1019.64 1019.70 1019.76 1019.81 1019.85 1019.88 1019.90 1019.91 1019.91 1019.89 1019.84 1019.76 1019.64
1013.69 1014.12 1014.49 1014.85 1015.21 1015.61 1016.06 1016.54 1017.03 1017.49 1017.87 1018.16 1018.34 1018.43 1018.47 1018.49 1018.52 1018.60 1018.72 1018.89 1019.07 1019.25 1019.40 1019.51 1019.57 1019.60 1019.59 1019.58 1019.56 1019.55 1019.54 1019.54 1019.54 1019.55 1019.55 1019.56 1019.58 1019.59 1019.60 1019.58 1019.53 1019.44 1019.32
1014.02 1014.45 1014.85 1015.22 1015.60 1016.01 1016.45 1016.92 1017.39 1017.83 1018.20 1018.47 1018.64 1018.71 1018.72 1018.68 1018.64 1018.63 1018.67 1018.75 1018.87 1019.00 1019.14 1019.25 1019.34 1019.40 1019.42 1019.42 1019.40 1019.36 1019.31 1019.25 1019.20 1019.16 1019.13 1019.12 1019.12 1019.13 1019.14 1019.14 1019.10 1019.02 1018.91
1014.35 1014.80 1015.21 1015.61 1016.00 1016.42 1016.85 1017.31 1017.76 1018.18 1018.53 1018.79 1018.94 1018.99 1018.96 1018.87 1018.76 1018.66 1018.59 1018.57 1018.60 1018.66 1018.75 1018.84 1018.93 1019.01 1019.05 1019.07 1019.05 1019.00 1018.92 1018.84 1018.74 1018.66 1018.60 1018.56 1018.55 1018.56 1018.57 1018.57 1018.55 1018.49 1018.40
1014.68 1015.14 1015.58 1015.99 1016.41 1016.82 1017.25 1017.68 1018.11 1018.50 1018.82 1019.06 1019.20 1019.23 1019.17 1019.04 1018.87 1018.68 1018.51 1018.38 1018.30 1018.26 1018.27 1018.32 1018.38 1018.45 1018.51 1018.53 1018.53 1018.48 1018.41 1018.31 1018.20 1018.09 1018.00 1017.95 1017.92 1017.91 1017.92 1017.93 1017.92 1017.88 1017.81
1015.02 1015.49 1015.93 1016.37 1016.78 1017.20 1017.61 1018.01 1018.40 1018.75 1019.04 1019.26 1019.39 1019.42 1019.35 1019.19 1018.98 1018.72 1018.46 1018.23 1018.03 1017.88 1017.79 1017.75 1017.76 1017.79 1017.83 1017.87 1017.87 1017.85 1017.79 1017.70 1017.59 1017.48 1017.38 1017.31 1017.27 1017.25 1017.24 1017.24 1017.24 1017.21 1017.17
1015.37 1015.83 1016.27 1016.71 1017.12 1017.51 1017.89 1018.26 1018.59 1018.90 1019.16 1019.36 1019.49 1019.52 1019.47 1019.32 1019.09 1018.80 1018.48 1018.15 1017.83 1017.56 1017.35 1017.21 1017.13 1017.10 1017.10 1017.12 1017.14 1017.13 1017.10 1017.04 1016.95 1016.86 1016.77 1016.69 1016.63 1016.60 1016.58 1016.57 1016.55 1016.53 1016.50
1015.72 1016.16 1016.59 1017.00 1017.40 1017.76 1018.10 1018.41 1018.70 1018.96 1019.18 1019.37 1019.50 1019.56 1019.53 1019.42 1019.21 1018.92 1018.56 1018.16 1017.75 1017.36 1017.02 1016.75 1016.55 1016.43 1016.37 1016.36 1016.36 1016.37 1016.37 1016.35 1016.30 1016.24 1016.17 1016.10 1016.04 1015.99 1015.95 1015.92 1015.89 1015.87 1015.83
1016.08 1016.48 1016.88 1017.26 1017.62 1017.95 1018.23 1018.49 1018.71 1018.92 1019.11 1019.28 1019.42 1019.52 1019.55 1019.49 1019.33 1019.06 1018.69 1018.25 1017.77 1017.27 1016.80 1016.40 1016.07 1015.83 1015.69 1015.61 1015.59 1015.60 1015.61 1015.63 1015.62 1015.60 1015.57 1015.52 1015.47 1015.42 1015.37 1015.32 1015.28 1015.24 1015.21
1016.43 1016.78 1017.13 1017.48 1017.80 1018.07 1018.31 1018.50 1018.67 1018.82 1018.97 1019.13 1019.28 1019.42 1019.50 1019.51 1019.41 1019.19 1018.84 1018.39 1017.85 1017.27 1016.69 1016.15 1015.69 1015.33 1015.07 1014.91 1014.83 1014.82 1014.84 1014.88 1014.91 1014.93 1014.94 1014.92 1014.89 1014.85 1014.80 1014.75 1014.71 1014.67 1014.64
1016.75 1017.05 1017.36 1017.66 1017.94 1018.17 1018.35 1018.48 1018.59 1018.69 1018.80 1018.94 1019.09 1019.25 1019.38 1019.45 1019.42 1019.25 1018.94 1018.49 1017.93 1017.29 1016.63 1015.98 1015.39 1014.91 1014.53 1014.27 1014.12 1014.06 1014.06 1014.10 1014.16 1014.21 1014.25 1014.28 1014.28 1014.26 1014.23 1014.19 1014.15 1014.12 1014.10
1017.02 1017.27 1017.54 1017.81 1018.05 1018.24 1018.38 1018.46 1018.51 1018.55 1018.62 1018.72 1018.86 1019.03 1019.19 1019.30 1019.32 1019.20 1018.94 1018.52 1017.96 1017.29 1016.57 1015.85 1015.16 1014.57 1014.08 1013.72 1013.48 1013.34 1013.30 1013.31 1013.36 1013.43 1013.50 1013.56 1013.59 1013.61 1013.61 1013.60 1013.58 1013.57 1013.58
1017.23 1017.45 1017.70 1017.94 1018.15 1018.31 1018.40 1018.44 1018.43 1018.42 1018.43 1018.49 1018.60 1018.75 1018.91 1019.03 1019.09 1019.01 1018.79 1018.41 1017.88 1017.22 1016.49 1015.73 1014.99 1014.31 1013.73 1013.27 1012.93 1012.71 1012.59 1012.55 1012.57 1012.62 1012.70 1012.77 1012.83 1012.89 1012.92 1012.94 1012.96 1012.98 1013.02
1017.37 1017.58 1017.81 1018.04 1018.23 1018.36 1018.42 1018.42 1018.37 1018.30 1018.25 1018.25 1018.31 1018.41 1018.54 1018.66 1018.72 1018.67 1018.49 1018.16 1017.68 1017.07 1016.36 1015.61 1014.85 1014.14 1013.50 1012.95 1012.52 1012.20 1011.98 1011.86 1011.81 1011.82 1011.87 1011.93 1012.01 1012.08 1012.14 1012.20 1012.25 1012.31 1012.38
1017.44 1017.65 1017.88 1018.10 1018.28 1018.39 1018.43 1018.39 1018.30 1018.18 1018.07 1018.00 1017.99 1018.03 1018.11 1018.20 1018.24 1018.20 1018.06 1017.78 1017.36 1016.82 1016.18 1015.48 1014.75 1014.04 1013.37 1012.77 1012.25 1011.84 1011.51 1011.29 1011.14 1011.08 1011.06 1011.09 1011.15 1011.21 1011.29 1011.36 1011.44 1011.52 1011.61
1017.47 1017.68 1017.91 1018.12 1018.29 1018.38 1018.40 1018.33 1018.20 1018.03 1017.87 1017.74 1017.66 1017.63 1017.64 1017.67 1017.69 1017.65 1017.53 1017.30 1016.96 1016.51 1015.96 1015.34 1014.68 1014.01 1013.34 1012.71 1012.14 1011.63 1011.20 1010.86 1010.60 1010.43 1010.32 1010.28 1010.28 1010.32 1010.37 1010.44 1010.51 1010.60 1010.70
1017.45 1017.66 1017.88 1018.08 1018.23 1018.31 1018.30 1018.21 1018.05 1017.85 1017.64 1017.45 1017.31 1017.21 1017.16 1017.14 1017.12 1017.06 1016.95 1016.77 1016.50 1016.14 1015.70 1015.19 1014.62 1014.01 1013.38 1012.75 1012.14 1011.56 1011.04 1010.58 1010.20 1009.90 1009.68 1009.53 1009.45 1009.42 1009.42 1009.45 1009.49 1009.56 1009.64
1017.40 1017.60 1017.81 1017.98 1018.11 1018.16 1018.12 1018.01 1017.82 1017.60 1017.36 1017.14 1016.95 1016.80 1016.70 1016.63 1016.56 1016.49 1016.39 1016.24 1016.03 1015.76 1015.41 1015.01 1014.54 1014.01 1013.43 1012.82 1012.19 1011.57 1010.96 1010.40 1009.90 1009.48 1009.13 1008.87 1008.68 1008.55 1008.47 1008.43 1008.41 1008.43 1008.47
1017.32 1017.50 1017.67 1017.82 1017.90 1017.92 1017.86 1017.72 1017.52 1017.28 1017.03 1016.80 1016.59 1016.41 1016.27 1016.16 1016.07 1015.97 1015.86 1015.73 1015.56 1015.35 1015.09 1014.77 1014.39 1013.94 1013.42 1012.85 1012.22 1011.57 1010.91 1010.27 1009.67 1009.13 1008.67 1008.29 1007.98 1007.74 1007.56 1007.42 1007.32 1007.26 1007.25
1017.20 1017.35 1017.48 1017.58 1017.63 1017.60 1017.51 1017.35 1017.14 1016.91 1016.67 1016.43 1016.22 1016.04 1015.89 1015.76 1015.63 1015.52 1015.40 1015.27 1015.12 1014.94 1014.72 1014.47 1014.15 1013.76 1013.30 1012.76 1012.16 1011.50 1010.81 1010.12 1009.45 1008.83 1008.27 1007.77 1007.35 1007.00 1006.71 1006.47 1006.27 1006.12 1006.02
1017.04 1017.16 1017.25 1017.30 1017.29 1017.23 1017.10 1016.93 1016.72 1016.49 1016.27 1016.06 1015.87 1015.70 1015.55 1015.41 1015.27 1015.14 1015.00 1014.85 1014.69 1014.51 1014.32 1014.08 1013.80 1013.45 1013.03 1012.53 1011.95 1011.31 1010.62 1009.91 1009.20 1008.52 1007.88 1007.31 1006.80 1006.34 1005.94 1005.60 1005.30 1005.05 1004.87
1016.86 1016.95 1016.99 1017.00 1016.94 1016.83 1016.67 1016.48 1016.27 1016.06 1015.86 1015.68 1015.53 1015.39 1015.26 1015.12 1014.98 1014.83 1014.66 1014.48 1014.29 1014.09 1013.88 1013.64 1013.36 1013.02 1012.62 1012.15 1011.60 1010.98 1010.31 1009.60 1008.88 1008.18 1007.51 1006.88 1006.30 1005.76 1005.27 1004.83 1004.44 1004.10 1003.82
1016.68 1016.73 1016.74 1016.70 1016.60 1016.45 1016.26 1016.05 1015.84 1015.64 1015.47 1015.33 1015.21 1015.10 1015.00 1014.88 1014.74 1014.57 1014.37 1014.16 1013.92 1013.68 1013.42 1013.15 1012.85 1012.50 1012.10 1011.64 1011.11 1010.52 1009.88 1009.20 1008.50 1007.80 1007.12 1006.46 1005.84 1005.25 1004.70 1004.18 1003.71 1003.28 1002.92
1016.51 1016.55 1016.53 1016.45 1016.31 1016.13 1015.91 1015.68 1015.47 1015.28 1015.13 1015.01 1014.93 1014.85 1014.77 1014.66 1014.53 1014.34 1014.12 1013.87 1013.58 1013.29 1012.97 1012.65 1012.30 1011.93 1011.51 1011.05 1010.54 1009.98 1009.37 1008.72 1008.06 1007.38 1006.72 1006.06 1005.42 1004.81 1004.21 1003.64 1003.10 1002.60 1002.16
1016.40 1016.41 1016.37 1016.26 1016.09 1015.87 1015.63 1015.38 1015.16 1014.98 1014.84 1014.74 1014.67 1014.62 1014.55 1014.46 1014.32 1014.12 1013.88 1013.59 1013.26 1012.90 1012.53 1012.15 1011.76 1011.34 1010.90 1010.43 1009.93 1009.38 1008.80 1008.20 1007.57 1006.94 1006.30 1005.66 1005.03 1004.40 1003.78 1003.18 1002.59 1002.04 1001.53
1016.34 1016.33 1016.26 1016.12 1015.92 1015.67 1015.41 1015.15 1014.91 1014.72 1014.59 1014.49 1014.43 1014.39 1014.33 1014.23 1014.09 1013.88 1013.61 1013.29 1012.92 1012.52 1012.10 1011.67 1011.22 1010.77 1010.30 1009.82 1009.31 1008.78 1008.22 1007.65 1007.06 1006.46 1005.86 1005.25 1004.63 1004.01 1003.39 1002.77 1002.15 1001.56 1001.00
Thickness
5786 5785 5784 5783 5783 5782 5781 5780 5779 5778 5776 5775 5775 5774 5772 5771 5770 5769 5768 5767 5766 5764 5763 5762 5760 5758 5756 5753 5752 5750 5749 5747 5746 5745 5743 5742 5741 5739 5738 5736 5734 5732 5731
5786 5785 5784 5783 5782 5781 5780 5779 5778 5777 5776 5775 5774 5774 5773 5771 5770 5769 5768 5767 5766 5765 5764 5762 5760 5758 5757 5754 5752 5751 5749 5748 5747 5745 5744 5742 5741 5740 5738 5736 5734 5732 5731
5787 5785 5783 5782 5782 5781 5780 5778 5777 5776 5774 5774 5773 5773 5773 5772 5770 5769 5768 5767 5766 5765 5763 5761 5760 5758 5757 5755 5753 5751 5749 5748 5747 5745 5744 5743 5741 5740 5738 5736 5735 5733 5731
5787 5785 5783 5782 5782 5780 5779 5777 5775 5772 5772 5772 5772 5772 5772 5771 5769 5768 5767 5767 5766 5764 5763 5761 5760 5758 5756 5755 5753 5751 5749 5748 5747 5745 5744 5742 5741 5740 5738 5737 5735 5733 5731
5786 5785 5783 5782 5781 5779 5777 5776 5773 5772 5770 5770 5770 5770 5770 5769 5768 5768 5767 5766 5765 5763 5762 5760 5759 5757 5756 5754 5753 5750 5749 5748 5746 5745 5743 5742 5741 5739 5738 5737 5735 5733 5731
5786 5784 5782 5781 5780 5777 5775 5773 5771 5771 5770 5769 5768 5768 5768 5768 5767 5766 5765 5764 5763 5762 5761 5759 5758 5756 5754 5753 5752 5750 5749 5747 5746 5745 5743 5742 5740 5738 5737 5735 5734 5732 5730
5785 5783 5781 5779 5778 5775 5773 5772 5770 5768 5767 5767 5763 5761 5763 5765 5764 5764 5763 5762 5761 5761 5760 5758 5757 5754 5753 5752 5751 5750 5748 5747 5746 5744 5743 5741 5739 5737 5735 5734 5732 5730 5729
5784 5783 5780 5778 5776 5774 5772 5770 5768 5765 5764 5764 5759 5754 5750 5752 5757 5761 5760 5759 5759 5758 5758 5757 5756 5755 5753 5752 5751 5750 5747 5746 5744 5744 5743 5741 5738 5736 5733 5731 5730 5729 5727
5783 5782 5779 5777 5775 5773 5770 5769 5767 5763 5760 5761 5760 5753 5745 5742 5747 5753 5755 5756 5756 5756 5756 5755 5754 5754 5752 5751 5750 5749 5746 5745 5744 5743 5741 5739 5736 5735 5732 5730 5729 5727 5726
5782 5781 5778 5777 5774 5772 5770 5769 5767 5764 5761 5757 5757 5756 5752 5749 5743 5742 5747 5751 5752 5753 5753 5753 5753 5752 5751 5750 5749 5748 5746 5744 5742 5741 5739 5737 5735 5733 5731 5729 5727 5725 5724
5781 5780 5778 5776 5774 5771 5770 5768 5766 5764 5762 5758 5755 5753 5750 5748 5746 5741 5738 5742 5746 5749 5750 5750 5750 5749 5748 5747 5747 5745 5744 5742 5740 5738 5737 5735 5733 5730 5729 5727 5726 5724 5722
5778 5778 5777 5775 5773 5771 5769 5768 5766 5763 5761 5758 5755 5752 5748 5745 5742 5740 5736 5737 5738 5743 5746 5747 5746 5746 5745 5744 5743 5742 5741 5740 5738 5736 5734 5732 5730 5728 5726 5724 5724 5722 5721
5776 5776 5776 5774 5772 5770 5769 5767 5764 5762 5759 5756 5753 5751 5749 5746 5745 5741 5736 5734 5734 5737 5740 5742 5743 5743 5742 5741 5740 5739 5738 5736 5735 5733 5731 5729 5727 5725 5723 5722 5721 5720 5719
5777 5776 5775 5773 5771 5769 5767 5765 5762 5760 5758 5755 5753 5750 5747 5746 5744 5740 5736 5732 5729 5729 5731 5734 5738 5739 5738 5737 5737 5736 5734 5732 5731 5729 5728 5726 5724 5722 5720 5719 5718 5717 5716
5777 5775 5773 5771 5769 5767 5765 5762 5759 5757 5755 5752 5750 5748 5745 5743 5741 5739 5736 5732 5726 5720 5722 5727 5730 5734 5734 5733 5732 5731 5730 5728 5727 5725 5724 5722 5720 5718 5717 5715 5714 5713 5712
5776 5773 5771 5769 5766 5764 5762 5759 5756 5754 5751 5749 5747 5744 5741 5740 5737 5735 5732 5729 5726 5721 5717 5722 5724 5728 5729 5729 5727 5726 5724 5723 5722 5721 5720 5718 5717 5715 5713 5712 5710 5709 5708
5774 5771 5768 5766 5763 5761 5758 5755 5752 5750 5746 5744 5742 5740 5737 5735 5733 5730 5728 5725 5722 5719 5715 5717 5720 5722 5722 5721 5721 5720 5719 5718 5717 5716 5715 5714 5713 5711 5709 5708 5706 5705 5703
5771 5768 5765 5762 5760 5758 5755 5751 5748 5746 5742 5740 5738 5735 5733 5732 5728 5726 5723 5721 5719 5717 5713 5711 5713 5714 5715 5715 5715 5714 5713 5712 5711 5711 5709 5708 5707 5706 5705 5703 5702 5700 5699
5768 5764 5762 5758 5755 5753 5750 5748 5744 5741 5739 5736 5734 5731 5729 5726 5723 5721 5718 5716 5714 5714 5711 5707 5707 5709 5709 5709 5708 5707 5707 5706 5706 5704 5703 5702 5701 5701 5699 5698 5697 5696 5695
5764 5760 5758 5755 5751 5749 5746 5743 5740 5736 5734 5732 5730 5727 5725 5722 5719 5716 5714 5712 5710 5707 5705 5702 5701 5701 5701 5702 5700 5698 5698 5698 5698 5698 5696 5695 5695 5695 5694 5693 5692 5691 5691
5761 5758 5754 5750 5748 5745 5742 5739 5735 5732 5729 5726 5725 5723 5721 5719 5716 5713 5711 5707 5704 5701 5699 5696 5694 5694 5693 5693 5692 5691 5689 5689 5690 5690 5688 5688 5688 5688 5687 5687 5686 5685 5685
5756 5753 5749 5746 5743 5741 5738 5735 5731 5727 5723 5720 5719 5717 5716 5714 5711 5709 5706 5703 5701 5696 5693 5690 5688 5687 5687 5687 5686 5685 5682 5680 5679 5681 5679 5679 5680 5679 5680 5680 5680 5680 5679
5750 5747 5744 5740 5737 5736 5733 5730 5727 5722 5718 5715 5713 5711 5710 5708 5705 5702 5699 5697 5695 5694 5692 5687 5683 5683 5681 5681 5679 5677 5675 5673 5672 5674 5671 5671 5672 5671 5673 5673 5673 5673 5673
5745 5742 5738 5735 5732 5730 5727 5724 5721 5716 5713 5710 5708 5705 5702 5700 5698 5695 5692 5689 5687 5686 5685 5683 5680 5679 5678 5676 5673 5671 5669 5667 5667 5667 5665 5662 5664 5664 5666 5666 5667 5667 5666
5739 5736 5733 5729 5726 5723 5721 5718 5714 5709 5705 5703 5702 5700 5696 5693 5692 5689 5685 5682 5680 5680 5680 5678 5676 5674 5672 5670 5667 5663 5660 5657 5656 5657 5657 5655 5655 5655 5657 5658 5659 5659 5659
5733 5730 5726 5723 5720 5717 5714 5711 5707 5701 5697 5695 5694 5692 5690 5688 5685 5683 5678 5675 5672 5672 5671 5670 5668 5667 5665 5663 5661 5657 5654 5650 5648 5648 5650 5647 5647 5645 5645 5649 5650 5650 5650